Flag Weather past 2 weeks in Provo, Utah, U.S.A.

Now
39 °F

Clear.


Feels Like: 35 °F
Forecast: 34 / 49 °F
Wind: 6 mph from East

Location: Provo Municipal

Current Time: Nov 28, 2014 at 10:46:14 PM

Latest Report: Nov 28, 2014 at 10:15 PM


Visibility: 10 mi

Pressure: 29.85 "Hg

Humidity: 52%

Dew point: 23 °F

Location of ProvoLocation

Historic Weather in Provo — Graph

°F

Provo temperature yesterday

Maximum temperature yesterday: 46 °F (at 2:47 PM)
Minimum temperature yesterday: 28 °F (at 2:55 AM)
Average temperature yesterday: 35 °F

Past Weeks' High & Low Weather Summary

 TemperatureHumidityPressure
High63 °F (Nov 28, 1:55 PM)100% (Nov 24, 6:54 PM)30.52 "Hg (Nov 24, 6:54 PM)
Low12 °F (Nov 18, 6:51 AM)20% (Nov 28, 2:54 PM)29.78 "Hg (Nov 22, 3:53 PM)
Average30 °F73%30.21 "Hg
* Reported Nov 14 7:55 AM — Nov 28 9:35 PM, Provo, Weather by CustomWeather, © 2014

Note: Actual official high and low records may vary slightly from our data, if they occured in-between our weather recording intervals... More about our weather records

Advertising

Provo weather history for previous 24 hours

 ConditionsComfort  
Time TempWeatherWind HumidityBarometerVisibility
9:35 PM
Nov 28
39 °FClear.No wind52%29.86 "Hg10 mi
9:15 PM43 °FClear.No wind42%29.86 "Hg10 mi
8:50 PM41 °FPassing clouds.No wind53%29.86 "Hg15 mi
7:57 PM39 °FPassing clouds.5 mph56%29.86 "Hg15 mi
6:54 PM43 °FPassing clouds.No wind53%29.87 "Hg15 mi
5:47 PM48 °FPassing clouds.7 mph29%29.89 "Hg15 mi
4:48 PM57 °FPassing clouds.5 mph23%29.90 "Hg15 mi
3:59 PM61 °FScattered clouds.No wind25%29.91 "Hg15 mi
2:54 PM63 °FScattered clouds.No wind20%29.93 "Hg15 mi
1:55 PM63 °FPartly sunny.No wind24%29.95 "Hg15 mi
12:52 PM52 °FPartly sunny.No wind44%29.99 "Hg15 mi
11:59 AM54 °FOvercast.No wind44%30.01 "Hg15 mi
10:59 AM48 °FOvercast.No wind46%30.06 "Hg15 mi
9:49 AM41 °FOvercast.No wind66%30.08 "Hg15 mi
8:50 AM34 °FOvercast.No wind81%30.08 "Hg15 mi
7:55 AM32 °FOvercast.No wind80%30.08 "Hg15 mi
6:49 AM32 °FOvercast.No wind80%30.09 "Hg15 mi
6:35 AM30 °FClear.No wind80%30.09 "Hg10 mi
6:15 AM32 °FClear.No wind80%30.09 "Hg10 mi
5:55 AM30 °FClear.No wind86%30.09 "Hg10 mi
5:35 AM30 °FClear.No wind86%30.09 "Hg10 mi
5:15 AM30 °FClear.No wind86%30.10 "Hg10 mi
4:55 AM32 °FClear.No wind80%30.10 "Hg10 mi
4:35 AM30 °FClear.3 mph86%30.11 "Hg10 mi
4:15 AM30 °FClear.No wind86%30.11 "Hg10 mi
3:55 AM32 °FClear.No wind80%30.12 "Hg10 mi
3:35 AM32 °FClear.No wind80%30.12 "Hg10 mi
3:15 AM32 °FClear.No wind87%30.13 "Hg10 mi
2:55 AM34 °FClear.3 mph81%30.14 "Hg10 mi
2:35 AM34 °FClear.No wind81%30.14 "Hg10 mi
2:15 AM32 °FClear.No wind87%30.14 "Hg10 mi
1:55 AM34 °FClear.No wind81%30.14 "Hg10 mi
1:35 AM36 °FClear.3 mph75%30.15 "Hg10 mi
1:15 AM34 °FClear.No wind81%30.15 "Hg10 mi
12:55 AM34 °FClear.No wind81%30.15 "Hg10 mi
12:35 AM36 °FClear.No wind81%30.16 "Hg10 mi
12:15 AM34 °FClear.3 mph81%30.17 "Hg10 mi
11:55 PM
Nov 27
36 °FClear.3 mph81%30.17 "Hg10 mi
11:35 PM37 °FClear.No wind70%30.17 "Hg10 mi
11:15 PM39 °FClear.No wind70%30.17 "Hg10 mi
10:55 PM36 °FClear.5 mph81%30.18 "Hg10 mi
10:35 PM36 °FClear.3 mph81%30.18 "Hg10 mi
10:15 PM36 °FClear.No wind81%30.19 "Hg10 mi
Weather by CustomWeather, © 2014

See weather overviewHow to use our weather pages